| time (UTC) | temp F | wind direction | speed MPH | gust MPH | rain 1hr in | rain 24hr in | rain mn in | humidity % | barometer mb |
| 20260506173222 | 71 | 59 | 1.0 | 2.0 | 0.00 | 0.00 | 0.00 | 77 | 1013.1 |
| 20260506172719 | 70 | 348 | 5.0 | 7.0 | 0.00 | 0.00 | 0.00 | 77 | 1013.1 |
| 20260506172215 | 70 | 14 | 2.0 | 3.0 | 0.00 | 0.00 | 0.00 | 79 | 1013.1 |
| 20260506171713 | 69 | 44 | 1.0 | 1.0 | 0.00 | 0.00 | 0.00 | 80 | 1013.1 |
| 20260506171210 | 69 | 11 | 3.0 | 6.0 | 0.00 | 0.00 | 0.00 | 81 | 1013.5 |
| 20260506170708 | 69 | 338 | 5.0 | 6.0 | 0.00 | 0.00 | 0.00 | 80 | 1013.1 |
| 20260506170204 | 68 | 24 | 5.0 | 8.0 | 0.00 | 0.00 | 0.00 | 82 | 1013.5 |
| 20260506165702 | 67 | 341 | 7.0 | 8.0 | 0.00 | 0.00 | 0.00 | 83 | 1013.5 |
| 20260506165159 | 67 | 61 | 2.0 | 3.0 | 0.00 | 0.00 | 0.00 | 84 | 1013.5 |
| 20260506164656 | 66 | 38 | 3.0 | 3.0 | 0.00 | 0.00 | 0.00 | 86 | 1013.5 |
| 20260506164153 | 65 | 23 | 5.0 | 9.0 | 0.00 | 0.00 | 0.00 | 87 | 1014.1 |
| 20260506163650 | 65 | 348 | 5.0 | 7.0 | 0.00 | 0.00 | 0.00 | 88 | 1014.5 |
| 20260506163145 | 65 | 353 | 5.0 | 7.0 | 0.00 | 0.00 | 0.00 | 89 | 1014.1 |
| 20260506162641 | 66 | 350 | 4.0 | 5.0 | 0.00 | 0.00 | 0.00 | 89 | 1014.1 |
| 20260506162139 | 66 | 354 | 7.0 | 8.0 | 0.00 | 0.00 | 0.00 | 89 | 1014.5 |
| 20260506161636 | 66 | 18 | 10.0 | 13.0 | 0.00 | 0.00 | 0.00 | 89 | 1014.1 |
| 20260506161133 | 66 | 354 | 9.0 | 13.0 | 0.00 | 0.00 | 0.00 | 88 | 1014.5 |
| 20260506160630 | 68 | 6 | 8.0 | 9.0 | 0.00 | 0.00 | 0.00 | 88 | 1014.5 |
| 20260506160127 | 68 | 13 | 9.0 | 9.0 | 0.00 | 0.00 | 0.00 | 88 | 1014.1 |
| 20260506155626 | 69 | 66 | 4.0 | 5.0 | 0.00 | 0.00 | 0.00 | 87 | 1014.1 |
| 20260506155122 | 77 | 247 | 0.0 | 0.0 | 0.00 | 0.00 | 0.00 | 89 | 1013.1 |
| 20260506153219 | 77 | 6 | 0.0 | 1.0 | 0.00 | 0.00 | 0.00 | 89 | 1013.1 |
| 20260506152715 | 77 | 51 | 0.0 | 0.0 | 0.00 | 0.00 | 0.00 | 89 | 1012.7 |
| 20260506152213 | 77 | 254 | 0.0 | 0.0 | 0.00 | 0.00 | 0.00 | 89 | 1012.7 |
| 20260506151712 | 77 | 278 | 1.0 | 1.0 | 0.00 | 0.00 | 0.00 | 89 | 1012.7 |
| 20260506151208 | 77 | 313 | 0.0 | 0.0 | 0.00 | 0.00 | 0.00 | 90 | 1012.4 |
| 20260506150704 | 77 | 233 | 0.0 | 0.0 | 0.00 | 0.00 | 0.00 | 90 | 1012.7 |
| 20260506150201 | 77 | 177 | 2.0 | 2.0 | 0.00 | 0.00 | 0.00 | 89 | 1012.4 |
| 20260506145659 | 77 | 66 | 0.0 | 1.0 | 0.00 | 0.00 | 0.00 | 89 | 1012.4 |
| 20260506145155 | 77 | 123 | 2.0 | 2.0 | 0.00 | 0.00 | 0.00 | 89 | 1012.0 |
| 20260506144653 | 77 | 191 | 0.0 | 1.0 | 0.00 | 0.00 | 0.00 | 89 | 1012.0 |
| 20260506144149 | 77 | 291 | 0.0 | 1.0 | 0.00 | 0.00 | 0.00 | 90 | 1011.7 |
| 20260506143647 | 77 | 195 | 2.0 | 3.0 | 0.00 | 0.00 | 0.00 | 90 | 1011.7 |
| 20260506143145 | 76 | 166 | 1.0 | 1.0 | 0.00 | 0.00 | 0.00 | 90 | 1011.7 |
| 20260506142643 | 77 | 171 | 1.0 | 1.0 | 0.00 | 0.00 | 0.00 | 90 | 1011.3 |
| 20260506142141 | 77 | 203 | 0.0 | 0.0 | 0.00 | 0.00 | 0.00 | 90 | 1011.3 |
| 20260506141638 | 77 | 204 | 1.0 | 1.0 | 0.00 | 0.00 | 0.00 | 89 | 1011.7 |
| 20260506141136 | 76 | 211 | 0.0 | 0.0 | 0.00 | 0.00 | 0.00 | 89 | 1012.0 |
| 20260506140633 | 76 | 163 | 1.0 | 1.0 | 0.00 | 0.00 | 0.00 | 90 | 1012.0 |
| 20260506140130 | 76 | 185 | 1.0 | 1.0 | 0.00 | 0.00 | 0.00 | 90 | 1011.7 |
| 20260506135627 | 76 | 239 | 0.0 | 0.0 | 0.00 | 0.00 | 0.00 | 90 | 1011.3 |
| 20260506135124 | 76 | 243 | 0.0 | 1.0 | 0.00 | 0.00 | 0.00 | 90 | 1011.0 |
| 20260506134620 | 76 | 210 | 1.0 | 2.0 | 0.00 | 0.00 | 0.00 | 90 | 1011.0 |
| 20260506134116 | 76 | 158 | 3.0 | 3.0 | 0.00 | 0.00 | 0.00 | 90 | 1011.0 |
| 20260506133614 | 76 | 241 | 0.0 | 1.0 | 0.00 | 0.00 | 0.00 | 90 | 1011.0 |
| 20260506133110 | 76 | 338 | 1.0 | 1.0 | 0.00 | 0.00 | 0.00 | 90 | 1011.0 |
| 20260506132608 | 76 | 176 | 1.0 | 1.0 | 0.00 | 0.00 | 0.00 | 91 | 1010.7 |
| 20260506132105 | 76 | 244 | 0.0 | 0.0 | 0.00 | 0.00 | 0.00 | 92 | 1011.0 |
| 20260506131602 | 76 | 235 | 1.0 | 1.0 | 0.00 | 0.00 | 0.00 | 92 | 1011.0 |
| 20260506131058 | 75 | 234 | 0.0 | 0.0 | 0.00 | 0.00 | 0.00 | 92 | 1010.7 |
| 20260506130555 | 75 | 92 | 1.0 | 1.0 | 0.00 | 0.00 | 0.00 | 93 | 1010.7 |
| 20260506130053 | 75 | 203 | 1.0 | 1.0 | 0.00 | 0.00 | 0.00 | 93 | 1011.0 |
| 20260506125551 | 75 | 241 | 1.0 | 1.0 | 0.00 | 0.00 | 0.00 | 93 | 1011.0 |
| 20260506125048 | 75 | 185 | 1.0 | 1.0 | 0.00 | 0.00 | 0.00 | 93 | 1010.7 |
| 20260506124546 | 75 | 156 | 1.0 | 2.0 | 0.00 | 0.00 | 0.00 | 93 | 1010.7 |
| 20260506124044 | 75 | 250 | 0.0 | 0.0 | 0.00 | 0.00 | 0.00 | 93 | 1011.0 |
| 20260506123541 | 74 | 241 | 1.0 | 1.0 | 0.00 | 0.00 | 0.00 | 93 | 1010.7 |
| 20260506123039 | 74 | 184 | 1.0 | 1.0 | 0.00 | 0.00 | 0.00 | 93 | 1010.7 |
| 20260506122535 | 74 | 238 | 0.0 | 0.0 | 0.00 | 0.00 | 0.00 | 93 | 1010.7 |
| 20260506122034 | 74 | 244 | 0.0 | 0.0 | 0.00 | 0.00 | 0.00 | 93 | 1010.7 |
| 20260506121531 | 74 | 250 | 0.0 | 0.0 | 0.00 | 0.00 | 0.00 | 93 | 1010.7 |
| 20260506121027 | 74 | 241 | 0.0 | 0.0 | 0.00 | 0.00 | 0.00 | 93 | 1010.7 |
| 20260506120525 | 74 | 233 | 0.0 | 1.0 | 0.00 | 0.00 | 0.00 | 93 | 1010.7 |
| 20260506120022 | 74 | 207 | 1.0 | 1.0 | 0.00 | 0.00 | 0.00 | 93 | 1010.7 |
| 20260506115520 | 74 | 237 | 0.0 | 0.0 | 0.00 | 0.00 | 0.00 | 93 | 1010.7 |
| 20260506115018 | 74 | 238 | 0.0 | 0.0 | 0.00 | 0.00 | 0.00 | 93 | 1010.7 |
| 20260506114515 | 75 | 235 | 0.0 | 0.0 | 0.00 | 0.00 | 0.00 | 92 | 1010.7 |
| 20260506114014 | 75 | 252 | 0.0 | 0.0 | 0.00 | 0.00 | 0.00 | 92 | 1010.7 |
| 20260506113511 | 75 | 256 | 0.0 | 0.0 | 0.00 | 0.00 | 0.00 | 92 | 1010.7 |
| 20260506113009 | 75 | 245 | 0.0 | 0.0 | 0.00 | 0.00 | 0.00 | 92 | 1010.7 |
| 20260506112505 | 75 | 247 | 0.0 | 0.0 | 0.00 | 0.00 | 0.00 | 91 | 1010.7 |
| 20260506112002 | 75 | 247 | 0.0 | 0.0 | 0.00 | 0.00 | 0.00 | 91 | 1010.7 |
| 20260506111500 | 75 | 243 | 0.0 | 0.0 | 0.00 | 0.00 | 0.00 | 91 | 1010.7 |
| 20260506110957 | 75 | 231 | 0.0 | 0.0 | 0.00 | 0.00 | 0.00 | 91 | 1010.7 |
| 20260506110455 | 75 | 219 | 1.0 | 1.0 | 0.00 | 0.00 | 0.00 | 91 | 1010.3 |
| 20260506105951 | 75 | 226 | 0.0 | 0.0 | 0.00 | 0.00 | 0.00 | 91 | 1010.3 |
| 20260506105448 | 75 | 235 | 0.0 | 1.0 | 0.00 | 0.00 | 0.00 | 91 | 1010.3 |
| 20260506104945 | 75 | 141 | 2.0 | 2.0 | 0.00 | 0.00 | 0.00 | 91 | 1010.3 |
| 20260506104443 | 75 | 198 | 1.0 | 1.0 | 0.00 | 0.00 | 0.00 | 91 | 1010.3 |
| 20260506103941 | 75 | 236 | 0.0 | 1.0 | 0.00 | 0.00 | 0.00 | 91 | 1010.3 |
| 20260506103438 | 75 | 238 | 0.0 | 0.0 | 0.00 | 0.00 | 0.00 | 91 | 1010.3 |
| 20260506102935 | 75 | 239 | 0.0 | 0.0 | 0.00 | 0.00 | 0.00 | 91 | 1010.3 |
| 20260506102433 | 75 | 238 | 0.0 | 0.0 | 0.00 | 0.00 | 0.00 | 91 | 1010.3 |
| 20260506101930 | 75 | 192 | 1.0 | 1.0 | 0.00 | 0.00 | 0.00 | 91 | 1010.0 |
| 20260506101426 | 75 | 203 | 1.0 | 2.0 | 0.00 | 0.00 | 0.00 | 91 | 1010.3 |
| 20260506100924 | 75 | 240 | 0.0 | 0.0 | 0.00 | 0.00 | 0.00 | 91 | 1010.0 |
| 20260506100422 | 75 | 212 | 1.0 | 1.0 | 0.00 | 0.00 | 0.00 | 91 | 1010.0 |
| 20260506095919 | 75 | 198 | 5.0 | 6.0 | 0.00 | 0.00 | 0.00 | 91 | 1010.0 |
| 20260506095418 | 75 | 189 | 2.0 | 2.0 | 0.00 | 0.00 | 0.00 | 91 | 1010.0 |
| 20260506094914 | 75 | 220 | 3.0 | 3.0 | 0.00 | 0.00 | 0.00 | 91 | 1009.6 |
| 20260506094413 | 75 | 235 | 2.0 | 3.0 | 0.00 | 0.00 | 0.00 | 91 | 1009.6 |
| 20260506093910 | 75 | 202 | 2.0 | 2.0 | 0.00 | 0.00 | 0.00 | 91 | 1009.6 |
| 20260506093407 | 75 | 132 | 1.0 | 2.0 | 0.00 | 0.00 | 0.00 | 92 | 1009.6 |
| 20260506092905 | 75 | 216 | 2.0 | 2.0 | 0.00 | 0.00 | 0.00 | 91 | 1009.6 |
| 20260506092403 | 75 | 239 | 2.0 | 2.0 | 0.00 | 0.00 | 0.00 | 91 | 1009.6 |
| 20260506091859 | 75 | 222 | 1.0 | 2.0 | 0.00 | 0.00 | 0.00 | 91 | 1009.3 |
| 20260506091357 | 75 | 169 | 1.0 | 2.0 | 0.00 | 0.00 | 0.00 | 91 | 1009.0 |
| 20260506090854 | 75 | 210 | 2.0 | 3.0 | 0.00 | 0.00 | 0.00 | 91 | 1009.3 |
| 20260506090352 | 75 | 191 | 2.0 | 2.0 | 0.00 | 0.00 | 0.00 | 91 | 1009.3 |
| 20260506085848 | 75 | 107 | 3.0 | 5.0 | 0.00 | 0.00 | 0.00 | 91 | 1009.3 |
| 20260506085345 | 75 | 187 | 1.0 | 1.0 | 0.00 | 0.00 | 0.00 | 91 | 1009.3 |
| 20260506084841 | 76 | 192 | 2.0 | 2.0 | 0.00 | 0.00 | 0.00 | 91 | 1009.3 |
| 20260506084338 | 76 | 200 | 3.0 | 3.0 | 0.00 | 0.00 | 0.00 | 91 | 1009.3 |
| 20260506083834 | 76 | 199 | 2.0 | 2.0 | 0.00 | 0.00 | 0.00 | 91 | 1009.3 |
| 20260506083332 | 76 | 208 | 5.0 | 7.0 | 0.00 | 0.00 | 0.00 | 91 | 1009.3 |
| 20260506082829 | 76 | 202 | 2.0 | 3.0 | 0.00 | 0.00 | 0.00 | 91 | 1009.3 |
| 20260506082326 | 76 | 204 | 4.0 | 5.0 | 0.00 | 0.00 | 0.00 | 91 | 1009.6 |
| 20260506081822 | 76 | 198 | 3.0 | 3.0 | 0.00 | 0.00 | 0.00 | 91 | 1009.6 |
| 20260506081320 | 76 | 266 | 0.0 | 1.0 | 0.00 | 0.00 | 0.00 | 91 | 1009.3 |
| 20260506080817 | 76 | 103 | 2.0 | 2.0 | 0.00 | 0.00 | 0.00 | 91 | 1009.3 |
| 20260506080313 | 76 | 225 | 2.0 | 2.0 | 0.00 | 0.00 | 0.00 | 90 | 1009.3 |
| 20260506073258 | 76 | 146 | 2.0 | 2.0 | 0.00 | 0.00 | 0.00 | 90 | 1009.6 |
| 20260506072754 | 76 | 233 | 2.0 | 2.0 | 0.00 | 0.00 | 0.00 | 90 | 1009.6 |
| 20260506072252 | 76 | 194 | 3.0 | 5.0 | 0.00 | 0.00 | 0.00 | 91 | 1010.0 |
| 20260506071750 | 76 | 204 | 5.0 | 7.0 | 0.00 | 0.00 | 0.00 | 90 | 1010.0 |
| 20260506071248 | 76 | 218 | 5.0 | 6.0 | 0.00 | 0.00 | 0.00 | 90 | 1010.0 |
| 20260506070744 | 76 | 191 | 3.0 | 3.0 | 0.00 | 0.00 | 0.00 | 90 | 1010.0 |
| 20260506070241 | 76 | 224 | 0.0 | 1.0 | 0.00 | 0.00 | 0.00 | 90 | 1010.0 |
| 20260506062218 | 76 | 179 | 2.0 | 3.0 | 0.00 | 0.00 | 0.00 | 90 | 1010.0 |
| 20260506061714 | 76 | 195 | 4.0 | 5.0 | 0.00 | 0.00 | 0.00 | 90 | 1010.0 |
| 20260506061212 | 76 | 168 | 2.0 | 5.0 | 0.00 | 0.00 | 0.00 | 90 | 1010.0 |
| 20260506060711 | 76 | 157 | 2.0 | 2.0 | 0.00 | 0.00 | 0.00 | 90 | 1010.0 |
| 20260506060207 | 76 | 189 | 2.0 | 3.0 | 0.00 | 0.00 | 0.00 | 90 | 1010.0 |
| 20260506051139 | 77 | 252 | 3.0 | 5.0 | 0.00 | 0.00 | 0.00 | 88 | 1010.0 |
| 20260506050637 | 77 | 182 | 3.0 | 3.0 | 0.00 | 0.00 | 0.00 | 88 | 1010.0 |
| 20260506050134 | 77 | 209 | 2.0 | 2.0 | 0.00 | 0.00 | 0.00 | 88 | 1010.0 |
| 20260506045127 | 77 | 240 | 1.0 | 2.0 | 0.00 | 0.00 | 0.00 | 88 | 1010.0 |
| 20260506044625 | 77 | 179 | 4.0 | 7.0 | 0.00 | 0.00 | 0.00 | 88 | 1010.0 |
| 20260506044122 | 77 | 162 | 2.0 | 3.0 | 0.00 | 0.00 | 0.00 | 88 | 1010.0 |
| 20260506043619 | 77 | 187 | 1.0 | 2.0 | 0.00 | 0.00 | 0.00 | 88 | 1010.0 |
| 20260506043117 | 77 | 148 | 2.0 | 2.0 | 0.00 | 0.00 | 0.00 | 87 | 1010.0 |
| 20260506042616 | 77 | 241 | 3.0 | 5.0 | 0.00 | 0.00 | 0.00 | 87 | 1010.0 |
| 20260506042113 | 77 | 208 | 1.0 | 3.0 | 0.00 | 0.00 | 0.00 | 87 | 1010.0 |
| 20260506041612 | 77 | 189 | 2.0 | 5.0 | 0.00 | 0.00 | 0.00 | 87 | 1010.0 |
| 20260506041108 | 77 | 198 | 3.0 | 3.0 | 0.00 | 0.00 | 0.00 | 87 | 1010.0 |
| 20260506040606 | 77 | 181 | 1.0 | 2.0 | 0.00 | 0.00 | 0.00 | 87 | 1009.6 |
| 20260506035559 | 77 | 157 | 3.0 | 5.0 | 0.00 | 0.00 | 0.00 | 86 | 1009.6 |
| 20260506035056 | 77 | 200 | 3.0 | 3.0 | 0.00 | 0.00 | 0.00 | 86 | 1009.6 |
| 20260506034553 | 77 | 136 | 2.0 | 2.0 | 0.00 | 0.00 | 0.00 | 86 | 1009.6 |
| 20260506034050 | 77 | 224 | 1.0 | 2.0 | 0.00 | 0.00 | 0.00 | 86 | 1009.6 |
| 20260506033547 | 77 | 83 | 1.0 | 2.0 | 0.00 | 0.00 | 0.00 | 86 | 1009.6 |
| 20260506033044 | 77 | 201 | 2.0 | 3.0 | 0.00 | 0.00 | 0.00 | 86 | 1009.3 |
| 20260506032542 | 78 | 209 | 2.0 | 3.0 | 0.00 | 0.00 | 0.00 | 85 | 1009.0 |
| 20260506032038 | 78 | 236 | 3.0 | 3.0 | 0.00 | 0.00 | 0.00 | 84 | 1009.3 |
| 20260506031536 | 78 | 184 | 0.0 | 0.0 | 0.00 | 0.00 | 0.00 | 84 | 1009.0 |
| 20260506031033 | 78 | 229 | 3.0 | 5.0 | 0.00 | 0.00 | 0.00 | 84 | 1009.0 |
| 20260506030531 | 78 | 230 | 4.0 | 6.0 | 0.00 | 0.00 | 0.00 | 84 | 1009.0 |
| 20260506030028 | 78 | 169 | 2.0 | 3.0 | 0.00 | 0.00 | 0.00 | 85 | 1008.6 |
| 20260506025525 | 78 | 190 | 2.0 | 3.0 | 0.00 | 0.00 | 0.00 | 85 | 1008.6 |
| 20260506025021 | 78 | 201 | 6.0 | 8.0 | 0.00 | 0.00 | 0.00 | 85 | 1008.6 |
| 20260506024518 | 78 | 192 | 1.0 | 2.0 | 0.00 | 0.00 | 0.00 | 85 | 1008.6 |
| 20260506024014 | 78 | 219 | 1.0 | 2.0 | 0.00 | 0.00 | 0.00 | 85 | 1008.6 |
| 20260506023510 | 78 | 204 | 2.0 | 2.0 | 0.00 | 0.00 | 0.00 | 85 | 1008.3 |
| 20260506023008 | 78 | 171 | 0.0 | 1.0 | 0.00 | 0.00 | 0.00 | 84 | 1008.3 |
| 20260506022505 | 78 | 263 | 1.0 | 2.0 | 0.00 | 0.00 | 0.00 | 84 | 1008.3 |
| 20260506022003 | 78 | 207 | 1.0 | 1.0 | 0.00 | 0.00 | 0.00 | 83 | 1008.3 |
| 20260506021500 | 79 | 57 | 3.0 | 5.0 | 0.00 | 0.00 | 0.00 | 83 | 1008.0 |
| 20260506020957 | 79 | 128 | 4.0 | 6.0 | 0.00 | 0.00 | 0.00 | 83 | 1008.0 |
| 20260506020455 | 79 | 151 | 2.0 | 3.0 | 0.00 | 0.00 | 0.00 | 82 | 1007.6 |
| 20260506015951 | 79 | 193 | 1.0 | 3.0 | 0.00 | 0.00 | 0.00 | 81 | 1008.0 |
| 20260506015449 | 79 | 230 | 1.0 | 1.0 | 0.00 | 0.00 | 0.00 | 81 | 1008.0 |
| 20260506014946 | 79 | 222 | 1.0 | 2.0 | 0.00 | 0.00 | 0.00 | 81 | 1008.0 |
| 20260506014443 | 80 | 233 | 0.0 | 1.0 | 0.00 | 0.00 | 0.00 | 80 | 1008.0 |
| 20260506013939 | 80 | 234 | 0.0 | 1.0 | 0.00 | 0.00 | 0.00 | 79 | 1007.6 |
| 20260506013437 | 80 | 187 | 1.0 | 1.0 | 0.00 | 0.00 | 0.00 | 79 | 1007.6 |
| 20260506012933 | 80 | 244 | 0.0 | 1.0 | 0.00 | 0.00 | 0.00 | 79 | 1008.0 |
| 20260506012430 | 81 | 226 | 0.0 | 0.0 | 0.00 | 0.00 | 0.00 | 78 | 1008.0 |
| 20260506011927 | 81 | 222 | 0.0 | 1.0 | 0.00 | 0.00 | 0.00 | 77 | 1008.0 |
| 20260506011425 | 81 | 236 | 0.0 | 1.0 | 0.00 | 0.00 | 0.00 | 77 | 1008.0 |
| 20260506010921 | 81 | 228 | 1.0 | 1.0 | 0.00 | 0.00 | 0.00 | 76 | 1007.6 |
| 20260506010420 | 82 | 225 | 1.0 | 1.0 | 0.00 | 0.00 | 0.00 | 76 | 1007.6 |
| 20260506005916 | 82 | 195 | 0.0 | 1.0 | 0.00 | 0.00 | 0.00 | 75 | 1007.6 |
| 20260506005414 | 82 | 218 | 1.0 | 1.0 | 0.00 | 0.00 | 0.00 | 74 | 1007.6 |
| 20260506004909 | 82 | 240 | 0.0 | 1.0 | 0.00 | 0.00 | 0.00 | 74 | 1007.6 |
| 20260506004407 | 83 | 216 | 1.0 | 1.0 | 0.00 | 0.00 | 0.00 | 73 | 1007.6 |
| 20260506003903 | 83 | 246 | 1.0 | 1.0 | 0.00 | 0.00 | 0.00 | 73 | 1007.3 |
| 20260506003359 | 83 | 222 | 1.0 | 1.0 | 0.00 | 0.00 | 0.00 | 73 | 1007.3 |
| 20260506002856 | 83 | 212 | 0.0 | 1.0 | 0.00 | 0.00 | 0.00 | 73 | 1007.6 |
| 20260506002352 | 83 | 205 | 1.0 | 2.0 | 0.00 | 0.00 | 0.00 | 73 | 1007.6 |
| 20260506001848 | 83 | 222 | 1.0 | 1.0 | 0.00 | 0.00 | 0.00 | 73 | 1007.6 |
| 20260506001345 | 83 | 245 | 1.0 | 1.0 | 0.00 | 0.00 | 0.00 | 73 | 1007.3 |
| 20260506000842 | 83 | 228 | 0.0 | 1.0 | 0.00 | 0.00 | 0.00 | 72 | 1007.3 |
| 20260506000340 | 83 | 223 | 2.0 | 2.0 | 0.00 | 0.00 | 0.00 | 72 | 1007.6 |
| 20260505235836 | 83 | 240 | 0.0 | 1.0 | 0.00 | 0.00 | 0.00 | 72 | 1007.3 |
| 20260505235334 | 83 | 209 | 2.0 | 3.0 | 0.00 | 0.00 | 0.00 | 71 | 1007.6 |
| 20260505234830 | 83 | 198 | 3.0 | 6.0 | 0.00 | 0.00 | 0.00 | 72 | 1006.9 |
| 20260505234328 | 83 | 224 | 3.0 | 5.0 | 0.00 | 0.00 | 0.00 | 72 | 1007.3 |
| 20260505233825 | 83 | 230 | 2.0 | 2.0 | 0.00 | 0.00 | 0.00 | 72 | 1007.3 |
| 20260505233323 | 83 | 210 | 3.0 | 3.0 | 0.00 | 0.00 | 0.00 | 72 | 1007.3 |
| 20260505232820 | 84 | 200 | 1.0 | 2.0 | 0.00 | 0.00 | 0.00 | 71 | 1007.3 |
| 20260505232318 | 84 | 158 | 3.0 | 5.0 | 0.00 | 0.00 | 0.00 | 71 | 1007.3 |
| 20260505231814 | 84 | 207 | 1.0 | 2.0 | 0.00 | 0.00 | 0.00 | 71 | 1007.3 |
| 20260505231312 | 84 | 149 | 2.0 | 2.0 | 0.00 | 0.00 | 0.00 | 71 | 1007.3 |
| 20260505230810 | 84 | 143 | 5.0 | 7.0 | 0.00 | 0.00 | 0.00 | 70 | 1007.3 |
| 20260505230307 | 84 | 210 | 2.0 | 3.0 | 0.00 | 0.00 | 0.00 | 71 | 1007.3 |
| 20260505225803 | 84 | 239 | 2.0 | 3.0 | 0.00 | 0.00 | 0.00 | 71 | 1006.9 |
| 20260505225301 | 84 | 220 | 1.0 | 2.0 | 0.00 | 0.00 | 0.00 | 71 | 1006.9 |
| 20260505224755 | 84 | 175 | 3.0 | 5.0 | 0.00 | 0.00 | 0.00 | 70 | 1006.9 |
| 20260505224254 | 84 | 193 | 2.0 | 3.0 | 0.00 | 0.00 | 0.00 | 70 | 1006.9 |
| 20260505223751 | 84 | 199 | 3.0 | 5.0 | 0.00 | 0.00 | 0.00 | 69 | 1006.9 |
| 20260505223247 | 84 | 168 | 3.0 | 5.0 | 0.00 | 0.00 | 0.00 | 69 | 1006.9 |
| 20260505222743 | 85 | 200 | 3.0 | 5.0 | 0.00 | 0.00 | 0.00 | 69 | 1006.9 |
| 20260505222240 | 85 | 118 | 2.0 | 2.0 | 0.00 | 0.00 | 0.00 | 69 | 1006.9 |
| 20260505221737 | 84 | 96 | 3.0 | 5.0 | 0.00 | 0.00 | 0.00 | 69 | 1007.3 |
| 20260505221233 | 85 | 185 | 5.0 | 6.0 | 0.00 | 0.00 | 0.00 | 69 | 1007.3 |
| 20260505220730 | 84 | 238 | 3.0 | 5.0 | 0.00 | 0.00 | 0.00 | 69 | 1007.3 |
| 20260505220228 | 84 | 221 | 3.0 | 3.0 | 0.00 | 0.00 | 0.00 | 70 | 1007.3 |
| 20260505215726 | 84 | 206 | 1.0 | 2.0 | 0.00 | 0.00 | 0.00 | 70 | 1006.9 |
| 20260505215223 | 84 | 185 | 3.0 | 3.0 | 0.00 | 0.00 | 0.00 | 71 | 1007.3 |
| 20260505214721 | 85 | 160 | 3.0 | 6.0 | 0.00 | 0.00 | 0.00 | 70 | 1007.6 |
| 20260505214218 | 85 | 199 | 2.0 | 3.0 | 0.00 | 0.00 | 0.00 | 70 | 1007.6 |
| 20260505213715 | 84 | 229 | 3.0 | 6.0 | 0.00 | 0.00 | 0.00 | 70 | 1007.6 |
| 20260505213212 | 84 | 148 | 3.0 | 3.0 | 0.00 | 0.00 | 0.00 | 70 | 1007.6 |
| 20260505212708 | 85 | 182 | 7.0 | 8.0 | 0.00 | 0.00 | 0.00 | 69 | 1007.6 |
| 20260505212206 | 85 | 226 | 2.0 | 3.0 | 0.00 | 0.00 | 0.00 | 68 | 1007.6 |
| 20260505211702 | 85 | 209 | 3.0 | 5.0 | 0.00 | 0.00 | 0.00 | 69 | 1007.6 |
| 20260505211200 | 84 | 178 | 3.0 | 3.0 | 0.00 | 0.00 | 0.00 | 70 | 1008.0 |
| 20260505210656 | 84 | 193 | 3.0 | 5.0 | 0.00 | 0.00 | 0.00 | 71 | 1007.6 |
| 20260505210153 | 85 | 248 | 2.0 | 3.0 | 0.00 | 0.00 | 0.00 | 70 | 1008.0 |
| 20260505205651 | 84 | 225 | 5.0 | 7.0 | 0.00 | 0.00 | 0.00 | 69 | 1008.0 |
| 20260505205149 | 83 | 197 | 4.0 | 6.0 | 0.00 | 0.00 | 0.00 | 70 | 1008.0 |
| 20260505204645 | 83 | 187 | 4.0 | 5.0 | 0.00 | 0.00 | 0.00 | 72 | 1008.3 |
| 20260505204143 | 83 | 132 | 3.0 | 6.0 | 0.00 | 0.00 | 0.00 | 73 | 1008.3 |
| 20260505203640 | 84 | 205 | 4.0 | 6.0 | 0.00 | 0.00 | 0.00 | 70 | 1008.3 |
| 20260505203137 | 84 | 274 | 2.0 | 2.0 | 0.00 | 0.00 | 0.00 | 71 | 1008.6 |
| 20260505202632 | 84 | 167 | 3.0 | 5.0 | 0.00 | 0.00 | 0.00 | 71 | 1008.6 |
| 20260505202128 | 83 | 198 | 3.0 | 3.0 | 0.00 | 0.00 | 0.00 | 72 | 1009.0 |
| 20260505201625 | 83 | 176 | 3.0 | 3.0 | 0.00 | 0.00 | 0.00 | 72 | 1008.6 |
| 20260505201123 | 83 | 184 | 2.0 | 2.0 | 0.00 | 0.00 | 0.00 | 72 | 1008.6 |
| 20260505200621 | 83 | 180 | 3.0 | 3.0 | 0.00 | 0.00 | 0.00 | 72 | 1009.0 |
| 20260505200118 | 83 | 214 | 3.0 | 3.0 | 0.00 | 0.00 | 0.00 | 71 | 1009.0 |
| 20260505195614 | 82 | 201 | 4.0 | 5.0 | 0.00 | 0.00 | 0.00 | 72 | 1009.0 |
| 20260505195111 | 83 | 177 | 2.0 | 3.0 | 0.00 | 0.00 | 0.00 | 72 | 1009.0 |
| 20260505194608 | 82 | 219 | 4.0 | 5.0 | 0.00 | 0.00 | 0.00 | 73 | 1009.0 |
| 20260505194104 | 81 | 214 | 3.0 | 3.0 | 0.00 | 0.00 | 0.00 | 73 | 1009.0 |
| 20260505193601 | 81 | 165 | 5.0 | 7.0 | 0.00 | 0.00 | 0.00 | 75 | 1009.3 |
| 20260505193058 | 80 | 237 | 2.0 | 2.0 | 0.00 | 0.00 | 0.00 | 76 | 1009.3 |
| 20260505192557 | 81 | 174 | 6.0 | 8.0 | 0.00 | 0.00 | 0.00 | 75 | 1009.3 |
| 20260505192054 | 81 | 207 | 2.0 | 2.0 | 0.00 | 0.00 | 0.00 | 75 | 1009.3 |
| 20260505191552 | 81 | 240 | 5.0 | 7.0 | 0.00 | 0.00 | 0.00 | 75 | 1009.3 |
| 20260505191050 | 81 | 225 | 5.0 | 8.0 | 0.00 | 0.00 | 0.00 | 75 | 1009.3 |
| 20260505190544 | 80 | 186 | 4.0 | 5.0 | 0.00 | 0.00 | 0.00 | 77 | 1009.6 |
| 20260505190040 | 80 | 196 | 5.0 | 7.0 | 0.00 | 0.00 | 0.00 | 76 | 1009.3 |
| 20260505185537 | 80 | 115 | 3.0 | 6.0 | 0.00 | 0.00 | 0.00 | 76 | 1009.6 |
| 20260505185034 | 80 | 224 | 5.0 | 6.0 | 0.00 | 0.00 | 0.00 | 77 | 1009.6 |
| 20260505184531 | 80 | 211 | 1.0 | 2.0 | 0.00 | 0.00 | 0.00 | 77 | 1009.6 |
| 20260505184027 | 79 | 220 | 3.0 | 3.0 | 0.00 | 0.00 | 0.00 | 78 | 1009.6 |
| 20260505183524 | 79 | 287 | 3.0 | 5.0 | 0.00 | 0.00 | 0.00 | 78 | 1010.0 |
| 20260505183022 | 79 | 193 | 3.0 | 3.0 | 0.00 | 0.00 | 0.00 | 77 | 1009.6 |
| 20260505182517 | 79 | 213 | 4.0 | 7.0 | 0.00 | 0.00 | 0.00 | 78 | 1010.0 |
| 20260505182014 | 78 | 232 | 3.0 | 6.0 | 0.00 | 0.00 | 0.00 | 79 | 1010.0 |
| 20260505181511 | 78 | 218 | 7.0 | 9.0 | 0.00 | 0.00 | 0.00 | 79 | 1010.0 |
| 20260505181009 | 78 | 235 | 3.0 | 5.0 | 0.00 | 0.00 | 0.00 | 81 | 1010.0 |
| 20260505180504 | 78 | 310 | 1.0 | 1.0 | 0.00 | 0.00 | 0.00 | 80 | 1010.3 |
| 20260505180002 | 77 | 197 | 4.0 | 5.0 | 0.00 | 0.00 | 0.00 | 81 | 1010.0 |
| 20260505175457 | 77 | 210 | 5.0 | 7.0 | 0.00 | 0.00 | 0.00 | 82 | 1010.0 |
| 20260505174954 | 77 | 201 | 4.0 | 6.0 | 0.00 | 0.00 | 0.00 | 82 | 1010.3 |
| 20260505174451 | 77 | 230 | 3.0 | 5.0 | 0.00 | 0.00 | 0.00 | 81 | 1010.3 |
| 20260505173947 | 77 | 250 | 4.0 | 6.0 | 0.00 | 0.00 | 0.00 | 81 | 1010.3 |